[[{"header":{"parameterUnit":"m.s-1","parameterCategory":2,"la1":30.2991,"la2":30.254,"lo1":-89.0895,"lo2":-89.0444,"dy":0.0017,"dx":0.0017,"nx":28,"ny":28,"refTime":"2023-08-17T21:00:00:Z","depth":"0","parameterNumber":2,"parameterNumberName":"U-component_of_CURRENTS"},"data":[0,0,0,0,0,0,0,0,0,0,0,0,0,0,0,0,0,0,0,0,0,0,0,0,0,0,0,0,0,0,0,0,0,0,0,0,0,0,0,0,0,0,0,0,0,0,0,0,0,0,0,0,0,0,0,0,0,0,0.1298,0.1299,0,0.1417,0.1418,0.1419,0.1364,0.1362,0.1359,0.1356,0.1466,0.1471,0.1476,0,0,0,0,0,0,0,0,0,0,0,0,0,0.1195,0.1196,0.1297,0.1299,0.1301,0.1417,0.1418,0.1419,0.1365,0.1361,0.1358,0.1355,0.1464,0.147,0.1477,0,0,0,0,0,0,0,0,0,0,0,0,0,0.1266,0.1196,0.1297,0.1291,0.1292,0.1416,0.1418,0.1419,0.1365,0.1361,0.1357,0.1354,0.1462,0.147,0.1478,0.1607,0,0,0.1502,0.1506,0,0,0,0,0,0,0,0,0.1262,0.1269,0.129,0.1291,0.1293,0.1375,0.1422,0.1483,0.1366,0.1333,0.1356,0.1352,0.144,0.145,0.1475,0.1612,0.1616,0.1503,0.1508,0.1511,0.1514,0,0,0,0,0,0,0,0.1256,0.1265,0.1341,0.1292,0.1294,0.1342,0.1345,0.1434,0.1404,0.1336,0.1333,0.1354,0.1439,0.1468,0.1478,0.1618,0.1503,0.151,0.1515,0.1518,0.1746,0.1747,0,0,0,0,0,0,0.1245,0.1259,0.1337,0.1345,0.1271,0.1346,0.135,0.1349,0.1403,0.1409,0.1357,0.1351,0.1456,0.1468,0.1481,0.1537,0.1511,0.1519,0.1523,0.1745,0.1746,0.1747,0,0,0,0,0,0,0.1242,0.125,0.1332,0.1309,0.1323,0.1351,0.1352,0.1354,0.1379,0.142,0.1424,0.1379,0.1453,0.147,0.1519,0.1544,0.1522,0.153,0.1743,0.1745,0.1747,0.1713,0,0,0,0,0,0,0.1238,0.1248,0.126,0.1307,0.1324,0.14,0.1356,0.1359,0.14,0.1392,0.1442,0.1447,0.1452,0.1507,0.1527,0.1555,0.1536,0.1742,0.1744,0.1746,0.1712,0.1713,0.1714,0,0,0,0,0,0.1234,0.1274,0.126,0.1271,0.1333,0.1403,0.1416,0.1421,0.1405,0.1427,0.1428,0.1445,0.1535,0.1515,0.1538,0.1568,0.174,0.1743,0.1746,0.1712,0.1713,0.1714,0,0,0,0,0,0,0.1256,0.1274,0.1259,0.1305,0.1343,0.1394,0.1432,0.1441,0.1468,0.1459,0.1472,0.148,0.1529,0.1567,0.1544,0.164,0.164,0.1648,0.1607,0.1608,0.1609,0.1612,0.1543,0,0,0,0,0,0.1264,0.128,0.1313,0.1352,0.1369,0.1404,0.144,0.1447,0.1477,0.1485,0.1509,0.1539,0.157,0.1596,0.1638,0.1717,0.1764,0.1749,0.175,0.175,0.1769,0.1843,0.1851,0.1756,0.1756,0.1756,0,0,0.1295,0.1301,0.1318,0.1356,0.1383,0.1428,0.1414,0.1476,0.1513,0.1501,0.1552,0.1555,0.1591,0.1636,0.1666,0.1666,0.1803,0.1754,0.1753,0.1772,0.1846,0.1856,0.1864,0.1758,0.1758,0.1758,0,0,0.1353,0.1355,0.138,0.1409,0.1452,0.1474,0.1492,0.1542,0.1555,0.1609,0.159,0.1596,0.1677,0.1678,0.1695,0.1747,0.1803,0.1769,0.1784,0.1854,0.1862,0.187,0.194,0.1955,0.1771,0.1771,0.1771,0,0.1382,0.1407,0.141,0.1439,0.1471,0.149,0.1537,0.1577,0.1633,0.1653,0.1618,0.168,0.1694,0.174,0.1722,0.175,0.1802,0.1767,0.1854,0.1863,0.1872,0.1942,0.1958,0.177,0.177,0.177,0.177,0,0.1449,0.1472,0.1499,0.1516,0.1556,0.161,0.1646,0.1689,0.1696,0.1716,0.1755,0.1746,0.1777,0.1773,0.1756,0.1824,0.1845,0.1841,0.1845,0.1879,0.1951,0.1969,0.1768,0.1769,0.1769,0.1769,0,0,0.1486,0.1532,0.1536,0.1546,0.1598,0.1633,0.1705,0.1764,0.1803,0.182,0.1861,0.1858,0.1839,0.1857,0.1841,0.1872,0.1948,0.1876,0.188,0.1935,0.2117,0.211,0.2128,0.196,0.1963,0.1965,0.2142,0,0.1526,0.1577,0.1599,0.166,0.1687,0.1724,0.1781,0.1836,0.1868,0.1916,0.1907,0.1938,0.1883,0.1881,0.1906,0.1939,0.1994,0.1901,0.2087,0.2093,0.2073,0.2149,0.2063,0.2212,0.2159,0.2162,0.2164,0,0.1554,0.1588,0.164,0.1697,0.1714,0.1753,0.1827,0.1888,0.1963,0.1993,0.2019,0.2022,0.2059,0.2004,0.2104,0.205,0.2094,0.2111,0.2119,0.2141,0.2119,0.2173,0.2247,0.2191,0.2192,0.219,0.2188,0,0.1519,0.1604,0.1635,0.1657,0.1735,0.1767,0.1816,0.1894,0.194,0.2046,0.2074,0.2135,0.2153,0.2218,0.2228,0.2194,0.234,0.231,0.2356,0.2356,0.2337,0.233,0.2371,0.2419,0.2419,0.2418,0.2418,0,0.1505,0.1528,0.1619,0.1628,0.1687,0.1746,0.1801,0.188,0.1964,0.202,0.2097,0.2149,0.2206,0.2273,0.2299,0.2382,0.2417,0.2391,0.2413,0.2322,0.2312,0.2305,0.2265,0.2425,0.2424,0.2422,0.2421,0,0.1411,0.1471,0.1518,0.162,0.1652,0.1684,0.1773,0.1813,0.1923,0.2005,0.2041,0.2177,0.2299,0.235,0.2467,0.2471,0.2498,0.2575,0.2459,0.2463,0.2446,0.2408,0.2425,0.2376,0.2687,0.2688,0.2689,0,0.1352,0.137,0.1489,0.1517,0.1551,0.1614,0.1651,0.1774,0.1822,0.2015,0.2046,0.2206,0.2293,0.247,0.2539,0.2643,0.2553,0.2628,0.2542,0.2465,0.2439,0.2322,0.227,0.251,0.2509,0.2509,0.2508,0,0.1265,0.1311,0.1355,0.1422,0.1465,0.1522,0.1593,0.1626,0.1781,0.1867,0.2007,0.2101,0.2315,0.2394,0.2545,0.26,0.2509,0.2622,0.2577,0.2347,0.219,0.2145,0.2372,0.2504,0.2504,0.2504,0.2505,0.2505,0.1199,0.1216,0.1285,0.134,0.1377,0.1418,0.1441,0.1521,0.1598,0.1726,0.1887,0.2008,0.2213,0.2423,0.2458,0.2521,0.2503,0.2491,0.247,0.2373,0.226,0.2478,0.26,0.2601,0.2602,0.2602,0.2603,0,0.1163,0.1178,0.1206,0.1265,0.1261,0.1324,0.1389,0.1401,0.1458,0.1611,0.1717,0.192,0.2048,0.2216,0.2376,0.2351,0.225,0.2337,0.2145,0.2118,0.2362,0.2286,0.2298,0.2298,0.2299,0.2299,0.2299,0.2299,0.1142,0.1156,0.1179,0.1157,0.1172,0.1163,0.1189,0.1217,0.1305,0.1421,0.1545,0.168,0.1974,0.2188,0.223,0.22,0.206,0.2008,0.2015,0.2172,0.2183,0.2193,0.2112,0.2088,0.2087,0.1682,0.1679,0.1677]},{"header":{"parameterUnit":"m.s-1","parameterCategory":2,"la1":30.2991,"la2":30.254,"lo1":-89.0895,"lo2":-89.0444,"dy":0.0017,"dx":0.0017,"nx":28,"ny":28,"refTime":"2023-08-17T21:00:00:Z","depth":"0","parameterNumber":3,"parameterNumberName":"V-component_of_CURRENTS"},"data":[0,0,0,0,0,0,0,0,0,0,0,0,0,0,0,0,0,0,0,0,0,0,0,0,0,0,0,0,0,0,0,0,0,0,0,0,0,0,0,0,0,0,0,0,0,0,0,0,0,0,0,0,0,0,0,0,0,0,-0.004,-0.004,0,-0.0004,-0.0004,-0.0003,0.0009,0.0009,0.0009,0.0008,0.0015,0.0016,0.0016,0,0,0,0,0,0,0,0,0,0,0,0,0,0.0002,0.0001,-0.004,-0.004,-0.004,-0.0004,-0.0004,-0.0003,0.0009,0.0009,0.0008,0.0008,0.0015,0.0016,0.0016,0,0,0,0,0,0,0,0,0,0,0,0,0,0.0007,0.0,-0.004,-0.0031,-0.003,-0.0004,-0.0004,-0.0003,0.0009,0.0009,0.0008,0.0008,0.0015,0.0016,0.0017,0.0032,0,0,0.0019,0.0019,0,0,0,0,0,0,0,0,0.0007,0.0006,-0.0033,-0.0032,-0.0031,-0.0005,0.0014,0.0007,0.001,-0.0003,0.0008,0.0008,0.0005,0.0006,0.0018,0.0033,0.0033,0.0019,0.0019,0.002,0.002,0,0,0,0,0,0,0,0.0006,0.0005,-0.0024,-0.0033,-0.0031,0.0005,0.0005,0.0013,0.0005,-0.0002,-0.0002,-0.0001,0.0005,0.0017,0.0018,0.0033,0.0019,0.002,0.002,0.002,0.0043,0.0043,0,0,0,0,0,0,-0.0008,0.0004,-0.0025,-0.0023,-0.0015,0.0005,0.0004,-0.001,0.0005,0.0007,-0.0001,-0.0001,0.0016,0.0017,0.0019,0.0026,0.002,0.0021,0.0021,0.0043,0.0043,0.0043,0,0,0,0,0,0,-0.0007,-0.0011,-0.0026,-0.0009,-0.0009,0.0003,-0.0012,-0.001,0.0006,0.0006,0.0007,0.0012,0.0016,0.0017,0.0024,0.0027,0.0021,0.0022,0.0043,0.0043,0.0043,0.0048,0,0,0,0,0,0,-0.0006,-0.0012,-0.0024,-0.0011,-0.0011,-0.0007,-0.0012,-0.0009,0.0006,0.0006,0.0017,0.0017,0.0016,0.0023,0.0025,0.0028,0.0022,0.0043,0.0043,0.0043,0.0048,0.0049,0.0049,0,0,0,0,0,-0.0005,-0.0014,-0.0026,-0.0029,-0.003,-0.0007,-0.0002,0.0007,0.0007,0.0019,0.0019,0.0017,0.0025,0.0024,0.0026,0.0029,0.0042,0.0043,0.0043,0.0048,0.0049,0.0049,0,0,0,0,0,0,-0.0011,-0.0014,-0.0026,-0.004,-0.0026,-0.0006,0.001,0.0012,0.0025,0.0029,0.0023,0.0023,0.0029,0.003,0.0028,0.0036,0.0033,0.0033,0.0036,0.0036,0.0037,0.0059,0.0023,0,0,0,0,0,-0.0019,-0.0023,-0.002,-0.0031,-0.002,-0.0005,0.0006,0.0015,0.0027,0.0033,0.0028,0.003,0.0033,0.0035,0.0038,0.0047,0.0044,0.0049,0.0049,0.005,0.0069,0.0064,0.0066,0.0044,0.0044,0.0044,0,0,-0.0027,-0.0028,-0.0032,-0.0031,-0.0014,0.0011,0.0002,0.0029,0.0048,0.0031,0.0048,0.0034,0.0036,0.0041,0.0044,0.0042,0.005,0.005,0.0051,0.007,0.0065,0.0067,0.0069,0.0044,0.0044,0.0044,0,0,-0.0021,-0.0037,-0.0028,-0.001,0.0014,0.0028,0.0036,0.0054,0.0063,0.0076,0.0063,0.0049,0.0058,0.005,0.0051,0.006,0.0054,0.0058,0.008,0.0075,0.0077,0.0079,0.0056,0.0056,0.0058,0.0058,0.0058,0,-0.0034,-0.003,-0.002,0.0005,0.0022,0.0037,0.0064,0.0083,0.0094,0.01,0.0084,0.0079,0.0065,0.0074,0.007,0.0062,0.0056,0.0076,0.0076,0.0078,0.008,0.0056,0.0056,0.0058,0.0058,0.0058,0.0058,0,-0.0011,-0.0006,0.001,0.0039,0.0066,0.0091,0.012,0.0139,0.0142,0.0145,0.0147,0.012,0.0115,0.0099,0.0089,0.0092,0.0082,0.0076,0.0075,0.0082,0.0057,0.0056,0.0059,0.0058,0.0058,0.0058,0,0,-0.0051,0.0009,0.0013,0.0038,0.0084,0.0112,0.0156,0.0188,0.0214,0.0203,0.0217,0.0194,0.0168,0.0167,0.0137,0.0126,0.0109,0.0109,0.0109,0.0088,0.0089,0.0062,0.0059,0.0106,0.0107,0.0107,0.0058,0,-0.0043,0.0009,0.0035,0.0088,0.0122,0.0157,0.0196,0.0233,0.0246,0.0261,0.0239,0.0238,0.02,0.0186,0.017,0.013,0.0113,0.0122,0.0085,0.0084,0.0061,0.006,0.0091,0.0049,0.0057,0.0057,0.0057,0,-0.0017,0.0005,0.0058,0.0122,0.014,0.0172,0.0241,0.0277,0.0312,0.0321,0.0317,0.0298,0.0276,0.0242,0.0189,0.0199,0.0151,0.0116,0.0113,0.0094,0.0058,0.0047,0.0048,-0.004,0.0057,0.0057,0.0057,0,-0.0017,0.0034,0.0076,0.0096,0.0163,0.0193,0.023,0.0286,0.0329,0.0354,0.0371,0.0347,0.0333,0.0284,0.0206,0.0201,0.0148,0.0127,0.0058,0.0054,0.0078,0.0076,-0.0004,0.0098,0.0098,0.0098,0.0098,0,0.0002,0.0036,0.0077,0.0096,0.0153,0.0198,0.0263,0.0304,0.0355,0.0413,0.0391,0.0421,0.0348,0.0308,0.0231,0.0144,0.0164,0.0069,0.0047,0.0077,0.0076,-0.0001,-0.0047,0.0096,0.0097,0.0097,0.0097,0,0.0029,0.0053,0.0101,0.0144,0.0164,0.0213,0.0299,0.0346,0.0385,0.0459,0.047,0.0477,0.0435,0.0345,0.026,0.0175,0.0046,0.0055,0.0085,0.0068,-0.0084,-0.013,-0.023,-0.0251,-0.0029,-0.003,-0.0031,0,0.006,0.0082,0.0131,0.017,0.0191,0.0258,0.0311,0.0367,0.0426,0.0504,0.0544,0.0523,0.0543,0.0392,0.0243,0.0101,0.0026,0.0019,0.0013,-0.0084,-0.0151,-0.0198,-0.021,0.0034,0.0034,0.0034,0.0034,0,0.0101,0.0114,0.0149,0.0214,0.0269,0.0342,0.0416,0.0465,0.0544,0.06,0.0681,0.07,0.0573,0.0462,0.0251,0.0149,-0.0032,0.0011,-0.0084,-0.01,-0.0158,-0.019,0.0039,0.0033,0.0033,0.0033,0.0033,0.0033,0.0136,0.0168,0.021,0.0283,0.0352,0.0436,0.0505,0.0571,0.067,0.0777,0.0786,0.0848,0.0669,0.04,0.0233,-0.005,-0.0058,-0.0124,-0.0171,-0.0211,-0.0227,-0.0013,-0.0048,-0.0049,-0.0049,-0.0049,-0.0049,0,0.018,0.0214,0.0279,0.0373,0.0465,0.0484,0.0591,0.0665,0.0776,0.0867,0.0938,0.0933,0.0675,0.0421,0.0031,-0.0181,-0.0248,-0.0297,-0.034,-0.0342,-0.0142,-0.0134,-0.0195,-0.0195,-0.0195,-0.0195,-0.0195,-0.0194,0.0201,0.0278,0.0306,0.0461,0.0533,0.0658,0.0723,0.0811,0.0902,0.1046,0.1127,0.1172,0.1035,0.0241,-0.0235,-0.0343,-0.0479,-0.0533,-0.0604,-0.0458,-0.0445,-0.0433,-0.0437,-0.056,-0.0561,-0.0757,-0.0759,-0.0761]}],[{"header":{"parameterUnit":"m.s-1","parameterCategory":2,"la1":30.2991,"la2":30.254,"lo1":-89.0895,"lo2":-89.0444,"dy":0.0017,"dx":0.0017,"nx":28,"ny":28,"refTime":"2023-08-17T21:00:00:Z","depth":"2","parameterNumber":2,"parameterNumberName":"U-component_of_CURRENTS"},"data":[0,0,0,0,0,0,0,0,0,0,0,0,0,0,0,0,0,0,0,0,0,0,0,0,0,0,0,0,0,0,0,0,0,0,0,0,0,0,0,0,0,0,0,0,0,0,0,0,0,0,0,0,0,0,0,0,0,0,0.0775,0.0778,0,0.0936,0.0936,0.0937,0.087,0.0868,0.0866,0.0864,0.0732,0.0731,0.0729,0,0,0,0,0,0,0,0,0,0,0,0,0,0.0709,0.0707,0.0775,0.0779,0.0782,0.0936,0.0936,0.0937,0.0871,0.0868,0.0865,0.0863,0.0733,0.0731,0.0729,0,0,0,0,0,0,0,0,0,0,0,0,0,0.0773,0.0706,0.0774,0.0781,0.0784,0.0936,0.0936,0.0937,0.0871,0.0868,0.0864,0.0861,0.0733,0.0731,0.0729,0.0783,0,0,0.0723,0.0722,0,0,0,0,0,0,0,0,0.0769,0.0773,0.0776,0.0781,0.0785,0.0895,0.0866,0.0877,0.0872,0.082,0.0864,0.086,0.0773,0.0768,0.0785,0.0777,0.0771,0.0722,0.0721,0.072,0.072,0,0,0,0,0,0,0,0.0764,0.0768,0.0821,0.0781,0.0786,0.0879,0.0879,0.0869,0.0794,0.0824,0.0824,0.0871,0.0771,0.0787,0.0781,0.0769,0.0722,0.0721,0.0719,0.0718,0.0884,0.0889,0,0,0,0,0,0,0.0767,0.0762,0.0816,0.0828,0.0788,0.0883,0.0883,0.0849,0.0801,0.0798,0.0874,0.0867,0.0792,0.0783,0.0775,0.0828,0.072,0.0718,0.0717,0.0878,0.0885,0.0891,0,0,0,0,0,0,0.0764,0.0767,0.081,0.0818,0.0832,0.0887,0.085,0.0854,0.0867,0.0845,0.0831,0.0883,0.0789,0.0778,0.0705,0.0822,0.0717,0.0715,0.0872,0.0881,0.0888,0.0937,0,0,0,0,0,0,0.0759,0.0762,0.0743,0.0815,0.0832,0.0883,0.0855,0.086,0.091,0.0902,0.085,0.0835,0.0786,0.0708,0.0703,0.0817,0.0714,0.0865,0.0876,0.0886,0.0928,0.0946,0.0962,0,0,0,0,0,0.0755,0.0789,0.0739,0.0749,0.0798,0.0886,0.0901,0.0922,0.0914,0.0918,0.0845,0.0836,0.0779,0.0706,0.07,0.0817,0.0859,0.0873,0.0885,0.0921,0.0943,0.0961,0,0,0,0,0,0,0.075,0.0789,0.0735,0.0768,0.08,0.088,0.0933,0.0938,0.0899,0.0879,0.0822,0.0801,0.0813,0.0811,0.0733,0.0915,0.0857,0.0868,0.0888,0.0908,0.0924,0.0865,0.0712,0,0,0,0,0,0.0738,0.0753,0.0788,0.0803,0.083,0.087,0.0916,0.0918,0.0916,0.09,0.0894,0.0889,0.0878,0.0869,0.0871,0.0915,0.0912,0.1025,0.1042,0.1055,0.1015,0.1047,0.1059,0.0933,0.0933,0.0933,0,0,0.0738,0.0768,0.0769,0.0804,0.0836,0.0877,0.0883,0.0956,0.0972,0.089,0.0924,0.0924,0.0898,0.0943,0.0963,0.0938,0.1119,0.1071,0.108,0.1032,0.1061,0.1071,0.1081,0.0942,0.094,0.0939,0,0,0.0802,0.0767,0.0811,0.0829,0.0892,0.0917,0.0935,0.1019,0.1025,0.1039,0.1012,0.1029,0.1063,0.1058,0.1051,0.1167,0.1193,0.1268,0.1297,0.1331,0.1338,0.1344,0.1449,0.1463,0.1288,0.1288,0.1288,0,0.0808,0.0824,0.0843,0.0887,0.0926,0.0929,0.098,0.099,0.104,0.1065,0.1051,0.1134,0.1108,0.1133,0.1175,0.1197,0.1244,0.12,0.1341,0.1346,0.1351,0.1456,0.1471,0.1292,0.1292,0.1291,0.1291,0,0.0898,0.0888,0.0935,0.095,0.0992,0.1045,0.1062,0.1096,0.113,0.1165,0.1231,0.1202,0.1255,0.1312,0.1242,0.1337,0.1374,0.1337,0.1259,0.1364,0.1473,0.1488,0.1298,0.1296,0.1295,0.1294,0,0,0.0958,0.0991,0.1,0.0994,0.1027,0.1081,0.11,0.1153,0.1196,0.1245,0.1325,0.1323,0.1368,0.1364,0.1372,0.1384,0.1481,0.138,0.138,0.1431,0.1624,0.1561,0.1571,0.1467,0.1468,0.1468,0.1716,0,0.1012,0.109,0.1112,0.1153,0.1171,0.1171,0.1209,0.1241,0.1279,0.1359,0.1352,0.1426,0.1375,0.1432,0.1432,0.145,0.1509,0.142,0.1559,0.1564,0.1446,0.1579,0.1361,0.1552,0.173,0.1732,0.1734,0,0.1072,0.1114,0.1174,0.122,0.1246,0.1286,0.1355,0.139,0.1439,0.1485,0.153,0.1546,0.1576,0.1524,0.1588,0.1543,0.1589,0.1598,0.1608,0.1512,0.1522,0.1465,0.1571,0.1758,0.1756,0.1754,0.1752,0,0.1058,0.1154,0.1207,0.121,0.1269,0.1322,0.1385,0.1442,0.1476,0.1574,0.1624,0.1674,0.1719,0.173,0.1711,0.1688,0.1774,0.1764,0.1769,0.177,0.1584,0.1564,0.1827,0.1827,0.1826,0.1825,0.1825,0,0.106,0.1089,0.1214,0.1197,0.1304,0.1367,0.145,0.1516,0.16,0.1662,0.1704,0.1744,0.1761,0.1787,0.1779,0.1804,0.185,0.1783,0.1811,0.1613,0.1594,0.1737,0.1723,0.1835,0.1833,0.1831,0.1829,0,0.0977,0.1035,0.1084,0.1208,0.1253,0.1335,0.145,0.1509,0.1615,0.1688,0.1726,0.1821,0.19,0.19,0.196,0.1909,0.1928,0.1933,0.1727,0.1722,0.1919,0.1907,0.2033,0.2032,0.2032,0.2031,0.2031,0,0.093,0.0938,0.107,0.1113,0.1168,0.128,0.1337,0.1476,0.1537,0.1707,0.1748,0.1875,0.1905,0.1977,0.1904,0.1933,0.1992,0.18,0.168,0.1916,0.1933,0.1921,0.1909,0.1529,0.1524,0.1521,0.1518,0,0.0836,0.0893,0.094,0.103,0.1112,0.12,0.1317,0.135,0.1522,0.1595,0.1717,0.1763,0.1842,0.1757,0.1789,0.1754,0.1764,0.1731,0.2027,0.1476,0.145,0.1463,0.1467,0.1486,0.1489,0.1491,0.1493,0.1494,0.0777,0.0818,0.0886,0.0979,0.1051,0.1134,0.1167,0.1271,0.1346,0.1463,0.1569,0.1609,0.1619,0.1558,0.1519,0.1504,0.1612,0.156,0.1568,0.158,0.1443,0.1411,0.1422,0.1425,0.1427,0.143,0.1431,0,0.08,0.0812,0.0843,0.0937,0.0982,0.1063,0.1156,0.1164,0.1206,0.1333,0.1383,0.1272,0.1223,0.1312,0.1196,0.1179,0.1122,0.1199,0.1112,0.1142,0.1169,0.1008,0.0875,0.0874,0.0874,0.0873,0,0,0.0791,0.0808,0.0821,0.0854,0.0913,0.0953,0.0989,0.0998,0.106,0.1076,0.1114,0.1153,0.1234,0.1049,0.0994,0.0953,0.1055,0.0913,0.1339,0.1263,0.1291,0.1333,0.1113,0,0,0,0,0]},{"header":{"parameterUnit":"m.s-1","parameterCategory":2,"la1":30.2991,"la2":30.254,"lo1":-89.0895,"lo2":-89.0444,"dy":0.0017,"dx":0.0017,"nx":28,"ny":28,"refTime":"2023-08-17T21:00:00:Z","depth":"2","parameterNumber":3,"parameterNumberName":"V-component_of_CURRENTS"},"data":[0,0,0,0,0,0,0,0,0,0,0,0,0,0,0,0,0,0,0,0,0,0,0,0,0,0,0,0,0,0,0,0,0,0,0,0,0,0,0,0,0,0,0,0,0,0,0,0,0,0,0,0,0,0,0,0,0,0,-0.0155,-0.0155,0,-0.0121,-0.0121,-0.012,-0.0106,-0.0106,-0.0106,-0.0106,-0.0151,-0.0152,-0.0153,0,0,0,0,0,0,0,0,0,0,0,0,0,-0.0111,-0.0112,-0.0155,-0.0155,-0.0155,-0.0121,-0.0121,-0.012,-0.0106,-0.0106,-0.0106,-0.0106,-0.0151,-0.0152,-0.0153,0,0,0,0,0,0,0,0,0,0,0,0,0,-0.0108,-0.0113,-0.0155,-0.0144,-0.0142,-0.0122,-0.0121,-0.012,-0.0106,-0.0106,-0.0106,-0.0106,-0.015,-0.0152,-0.0153,-0.0161,0,0,-0.0159,-0.0159,0,0,0,0,0,0,0,0,-0.0109,-0.011,-0.0146,-0.0144,-0.0143,-0.0118,-0.0122,-0.0138,-0.0106,-0.0119,-0.0106,-0.0106,-0.0148,-0.015,-0.0141,-0.0163,-0.0165,-0.0159,-0.016,-0.016,-0.0161,0,0,0,0,0,0,0,-0.0109,-0.0111,-0.0141,-0.0145,-0.0144,-0.0107,-0.0108,-0.0124,-0.0134,-0.0118,-0.0117,-0.0114,-0.0147,-0.0139,-0.0142,-0.0165,-0.0159,-0.016,-0.0161,-0.0162,-0.0147,-0.0146,0,0,0,0,0,0,-0.012,-0.0112,-0.0142,-0.014,-0.0126,-0.0108,-0.0109,-0.0126,-0.0132,-0.0133,-0.0114,-0.0113,-0.0136,-0.014,-0.0144,-0.0137,-0.016,-0.0162,-0.0163,-0.0148,-0.0147,-0.0145,0,0,0,0,0,0,-0.0119,-0.0124,-0.0144,-0.0124,-0.0124,-0.011,-0.0128,-0.0125,-0.0119,-0.0128,-0.013,-0.0111,-0.0137,-0.0141,-0.0165,-0.014,-0.0163,-0.0164,-0.015,-0.0148,-0.0146,-0.0134,0,0,0,0,0,0,-0.0118,-0.0124,-0.0143,-0.0126,-0.0126,-0.0121,-0.0128,-0.0124,-0.0117,-0.0116,-0.0127,-0.0131,-0.0137,-0.0162,-0.0166,-0.0142,-0.0165,-0.0152,-0.0149,-0.0147,-0.0137,-0.0132,-0.0128,0,0,0,0,0,-0.0117,-0.0123,-0.0145,-0.0148,-0.0153,-0.0121,-0.0116,-0.0105,-0.0117,-0.0103,-0.0126,-0.013,-0.0147,-0.0164,-0.0169,-0.0144,-0.0153,-0.015,-0.0147,-0.0138,-0.0133,-0.0129,0,0,0,0,0,0,-0.0116,-0.0122,-0.0145,-0.0157,-0.0144,-0.0118,-0.0101,-0.0107,-0.0112,-0.0114,-0.0137,-0.0142,-0.0144,-0.0147,-0.0165,-0.0127,-0.014,-0.0138,-0.0132,-0.0127,-0.0123,-0.0109,-0.0167,0,0,0,0,0,-0.013,-0.0134,-0.0135,-0.0144,-0.0134,-0.0126,-0.0116,-0.0107,-0.0106,-0.0107,-0.0121,-0.0128,-0.0132,-0.0137,-0.0137,-0.0136,-0.0149,-0.0113,-0.0109,-0.0106,-0.0094,-0.0112,-0.0109,-0.0135,-0.0135,-0.0135,0,0,-0.0137,-0.0136,-0.0144,-0.0143,-0.0129,-0.0108,-0.0118,-0.0089,-0.008,-0.0114,-0.0111,-0.0123,-0.013,-0.012,-0.0118,-0.0123,-0.0104,-0.0102,-0.0099,-0.0089,-0.0108,-0.0106,-0.0104,-0.0133,-0.0133,-0.0134,0,0,-0.0119,-0.0145,-0.0134,-0.0121,-0.0099,-0.0087,-0.0083,-0.0064,-0.0062,-0.0066,-0.0082,-0.0088,-0.0094,-0.0092,-0.0094,-0.0069,-0.0085,-0.0054,-0.0024,-0.0043,-0.0041,-0.004,-0.0057,-0.0058,-0.0049,-0.0049,-0.0049,0,-0.0129,-0.0129,-0.0123,-0.01,-0.0084,-0.008,-0.0055,-0.005,-0.0046,-0.0045,-0.0058,-0.0062,-0.0076,-0.0069,-0.0051,-0.0061,-0.0074,-0.005,-0.004,-0.0039,-0.0039,-0.0056,-0.0057,-0.0048,-0.0048,-0.0048,-0.0048,0,-0.0102,-0.0103,-0.0082,-0.0065,-0.004,-0.0013,-0.0002,0.0006,0.0002,0.0004,0.0007,-0.0015,-0.0014,-0.0011,-0.0027,-0.0014,-0.0026,-0.0041,-0.0061,-0.0036,-0.0055,-0.0057,-0.0046,-0.0047,-0.0047,-0.0047,0,0,-0.0121,-0.0078,-0.0072,-0.0055,-0.0021,0.001,0.0027,0.0049,0.0064,0.0055,0.0067,0.0057,0.0049,0.0048,0.0029,0.0017,0.0004,-0.0003,-0.0004,-0.0033,-0.0036,-0.0063,-0.0068,-0.0016,-0.0016,-0.0016,-0.0054,0,-0.0106,-0.0055,-0.0038,0.001,0.0038,0.0051,0.0079,0.01,0.0103,0.0116,0.0093,0.0103,0.007,0.0074,0.0054,0.0018,0.0003,0.0016,-0.0043,-0.0044,-0.0083,-0.0069,-0.006,-0.0095,-0.0056,-0.0056,-0.0056,0,-0.0073,-0.0054,-0.0003,0.0055,0.0072,0.01,0.0149,0.0172,0.0187,0.0191,0.0185,0.0168,0.015,0.012,0.006,0.0068,0.0026,-0.0008,-0.0011,-0.0039,-0.0073,-0.011,-0.0099,-0.0058,-0.0058,-0.0058,-0.0058,0,-0.0059,-0.0011,0.0032,0.0046,0.0099,0.0122,0.0157,0.0193,0.0225,0.0235,0.0257,0.0223,0.022,0.0152,0.0075,0.007,0.0006,-0.0015,-0.0081,-0.0083,-0.0086,-0.0089,-0.0051,-0.0051,-0.0051,-0.0051,-0.0051,0,-0.0031,0.0006,0.004,0.0049,0.0114,0.015,0.0216,0.024,0.0281,0.0338,0.0297,0.0321,0.023,0.0178,0.0095,0.0001,0.0014,-0.0069,-0.0093,-0.0081,-0.0083,-0.0057,-0.0057,-0.0053,-0.0052,-0.0052,-0.0052,0,0.0005,0.0025,0.0071,0.0103,0.0123,0.0178,0.026,0.0305,0.0337,0.0401,0.041,0.0396,0.0339,0.0231,0.0132,0.0037,-0.0058,-0.0094,-0.0074,-0.0095,-0.0139,-0.0138,-0.0168,-0.0169,-0.017,-0.0171,-0.0172,0,0.004,0.0056,0.0098,0.0139,0.0156,0.0228,0.0281,0.0331,0.0385,0.0452,0.0488,0.0456,0.0453,0.0278,0.0115,-0.0042,-0.0056,-0.015,-0.0159,-0.013,-0.015,-0.0147,-0.0144,-0.0159,-0.0159,-0.016,-0.016,0,0.0077,0.0089,0.012,0.0182,0.024,0.0316,0.0389,0.0437,0.051,0.0557,0.0622,0.0621,0.0479,0.0322,0.0097,-0.0009,-0.0129,-0.0164,-0.0137,-0.0132,-0.0125,-0.0144,-0.0141,-0.0164,-0.0164,-0.0163,-0.0163,-0.0163,0.0112,0.0147,0.018,0.0258,0.0329,0.0413,0.0481,0.054,0.0629,0.0708,0.0696,0.0694,0.0502,0.0228,0.0048,-0.0133,-0.0132,-0.0217,-0.0213,-0.021,-0.0204,-0.0199,-0.0251,-0.0251,-0.0251,-0.0251,-0.0251,0,0.0151,0.0189,0.0255,0.0351,0.0446,0.0463,0.0568,0.0629,0.0722,0.0763,0.079,0.0628,0.0433,0.0253,-0.0019,-0.0204,-0.0196,-0.0251,-0.0214,-0.021,-0.0206,-0.0198,-0.0245,-0.0245,-0.0245,-0.0245,0,0,0.017,0.0248,0.0279,0.0439,0.0514,0.0634,0.0697,0.0755,0.0806,0.0846,0.0835,0.0723,0.05,0.0285,0.0044,-0.0085,-0.0094,-0.0104,-0.0097,-0.0021,-0.0015,-0.0183,-0.0167,0,0,0,0,0]}],[{"header":{"parameterUnit":"m.s-1","parameterCategory":2,"la1":30.2991,"la2":30.254,"lo1":-89.0895,"lo2":-89.0444,"dy":0.0017,"dx":0.0017,"nx":28,"ny":28,"refTime":"2023-08-17T21:00:00:Z","depth":"4","parameterNumber":2,"parameterNumberName":"U-component_of_CURRENTS"},"data":[0,0,0,0,0,0,0,0,0,0,0,0,0,0,0,0,0,0,0,0,0,0,0,0,0,0,0,0,0,0,0,0,0,0,0,0,0,0,0,0,0,0,0,0,0,0,0,0,0,0,0,0,0,0,0,0,0,0,-0.0493,-0.0493,0,-0.0511,-0.0511,-0.0512,-0.0525,-0.0525,-0.0525,-0.0525,-0.0588,-0.059,-0.0592,0,0,0,0,0,0,0,0,0,0,0,0,0,-0.0458,-0.0459,-0.0493,-0.0493,-0.0493,-0.0511,-0.0511,-0.0512,-0.0525,-0.0525,-0.0525,-0.0525,-0.0588,-0.059,-0.0592,0,0,0,0,0,0,0,0,0,0,0,0,0,-0.0476,-0.0459,-0.0493,-0.05,-0.0501,-0.0511,-0.0511,-0.0512,-0.0525,-0.0525,-0.0525,-0.0525,-0.0587,-0.059,-0.0592,-0.0611,0,0,-0.06,-0.0602,0,0,0,0,0,0,0,0,-0.0475,-0.0478,-0.0499,-0.05,-0.0501,-0.0514,-0.0522,-0.0547,-0.0525,-0.0519,-0.0525,-0.0525,-0.0566,-0.0571,-0.0577,-0.0614,-0.0617,-0.0601,-0.0602,-0.0603,-0.0604,0,0,0,0,0,0,0,-0.0474,-0.0477,-0.0503,-0.0499,-0.05,-0.0498,-0.0501,-0.0527,-0.0546,-0.0519,-0.052,-0.0518,-0.0567,-0.0574,-0.0579,-0.0618,-0.0601,-0.0603,-0.0605,-0.0606,-0.0764,-0.0767,0,0,0,0,0,0,-0.0468,-0.0476,-0.0502,-0.0503,-0.0485,-0.0498,-0.0502,-0.0512,-0.0544,-0.0548,-0.0518,-0.0518,-0.057,-0.0575,-0.0581,-0.0698,-0.0603,-0.0606,-0.0607,-0.0761,-0.0765,-0.0767,0,0,0,0,0,0,-0.0468,-0.0471,-0.0501,-0.0487,-0.0491,-0.0499,-0.051,-0.0512,-0.0526,-0.0542,-0.0548,-0.053,-0.057,-0.0577,-0.0645,-0.0697,-0.0607,-0.061,-0.0758,-0.0762,-0.0766,-0.0874,0,0,0,0,0,0,-0.0467,-0.0471,-0.048,-0.0487,-0.0491,-0.0508,-0.051,-0.0512,-0.0523,-0.0524,-0.0555,-0.056,-0.057,-0.0642,-0.0648,-0.0699,-0.0612,-0.0755,-0.076,-0.0765,-0.0867,-0.0881,-0.0893,0,0,0,0,0,-0.0466,-0.048,-0.0481,-0.0484,-0.0503,-0.0508,-0.051,-0.0516,-0.0524,-0.0529,-0.058,-0.0559,-0.0676,-0.0646,-0.0653,-0.0706,-0.0753,-0.0759,-0.0764,-0.0861,-0.0878,-0.0893,0,0,0,0,0,0,-0.0469,-0.0483,-0.0484,-0.0502,-0.0503,-0.0509,-0.0514,-0.0522,-0.0563,-0.0576,-0.0597,-0.0607,-0.0693,-0.068,-0.0646,-0.0766,-0.0709,-0.0717,-0.078,-0.0796,-0.0809,-0.072,-0.0614,0,0,0,0,0,-0.0473,-0.0487,-0.0493,-0.0504,-0.0505,-0.0512,-0.0517,-0.0525,-0.0556,-0.0573,-0.0598,-0.0644,-0.0721,-0.0741,-0.0789,-0.0844,-0.0782,-0.0881,-0.0894,-0.0905,-0.0839,-0.0833,-0.0838,-0.0787,-0.0787,-0.0787,0,0,-0.0472,-0.0484,-0.049,-0.0505,-0.0506,-0.0512,-0.0515,-0.0527,-0.0535,-0.0576,-0.061,-0.0694,-0.075,-0.0836,-0.0869,-0.083,-0.0895,-0.0913,-0.0922,-0.0847,-0.084,-0.0844,-0.0848,-0.0791,-0.079,-0.0789,0,0,-0.0473,-0.0491,-0.0499,-0.0504,-0.0512,-0.052,-0.0525,-0.0541,-0.055,-0.0617,-0.0666,-0.0768,-0.0848,-0.0901,-0.0944,-0.1045,-0.0977,-0.1077,-0.1057,-0.1057,-0.106,-0.1061,-0.101,-0.1006,-0.1069,-0.1069,-0.1069,0,-0.0469,-0.0487,-0.0499,-0.0505,-0.0508,-0.0523,-0.0527,-0.054,-0.058,-0.0605,-0.0638,-0.0828,-0.0875,-0.0994,-0.103,-0.1071,-0.1032,-0.1003,-0.107,-0.107,-0.1069,-0.1016,-0.101,-0.1075,-0.1074,-0.1074,-0.1073,0,-0.0468,-0.0488,-0.0491,-0.0506,-0.0511,-0.0521,-0.0532,-0.0553,-0.0597,-0.0633,-0.0766,-0.0874,-0.0975,-0.104,-0.1063,-0.1114,-0.1077,-0.1102,-0.1021,-0.108,-0.1022,-0.1014,-0.1083,-0.1081,-0.108,-0.1078,0,0,-0.0448,-0.0483,-0.0487,-0.0494,-0.0516,-0.0519,-0.0538,-0.0568,-0.0591,-0.0694,-0.076,-0.0927,-0.0995,-0.1041,-0.1121,-0.1112,-0.1104,-0.1085,-0.1082,-0.1014,-0.1055,-0.0925,-0.0902,-0.1145,-0.1144,-0.1143,-0.1023,0,-0.0441,-0.0459,-0.048,-0.0494,-0.0498,-0.0522,-0.0541,-0.0577,-0.0626,-0.0691,-0.0829,-0.0941,-0.0994,-0.1084,-0.1091,-0.1109,-0.1081,-0.1128,-0.1019,-0.1013,-0.0876,-0.0888,-0.1139,-0.1016,-0.1014,-0.1012,-0.1011,0,-0.0433,-0.0447,-0.0462,-0.0495,-0.0499,-0.0524,-0.0556,-0.0588,-0.0671,-0.0718,-0.0846,-0.0928,-0.1004,-0.1036,-0.104,-0.1068,-0.1031,-0.1026,-0.1023,-0.0832,-0.0866,-0.094,-0.0994,-0.0996,-0.0997,-0.0998,-0.0999,0,-0.0411,-0.0437,-0.0451,-0.0459,-0.0498,-0.0523,-0.057,-0.0623,-0.0644,-0.075,-0.0772,-0.0901,-0.096,-0.0965,-0.095,-0.0988,-0.0897,-0.097,-0.0812,-0.0803,-0.0907,-0.0906,-0.0908,-0.0908,-0.0908,-0.0909,-0.0909,0,-0.0397,-0.0416,-0.0453,-0.0465,-0.0498,-0.0539,-0.0593,-0.0635,-0.0704,-0.0699,-0.0809,-0.0799,-0.0929,-0.0905,-0.0908,-0.0804,-0.0869,-0.0754,-0.0752,-0.0962,-0.0969,-0.0901,-0.0902,-0.0904,-0.0905,-0.0906,-0.0907,0,-0.0383,-0.0408,-0.0434,-0.0478,-0.0497,-0.0543,-0.0615,-0.0632,-0.0686,-0.0675,-0.0702,-0.0722,-0.0653,-0.0723,-0.0705,-0.0712,-0.0664,-0.0605,-0.0764,-0.0783,-0.0579,-0.0588,-0.0421,-0.0415,-0.041,-0.0406,-0.0403,0,-0.0387,-0.0395,-0.044,-0.0457,-0.0491,-0.0557,-0.0579,-0.0649,-0.0622,-0.0573,-0.0528,-0.0485,-0.0475,-0.0357,-0.0446,-0.0439,-0.0443,-0.0436,-0.0543,-0.0508,-0.0524,-0.0541,-0.0556,-0.0395,-0.0393,-0.0392,-0.0391,0,-0.0383,-0.0403,-0.0418,-0.0453,-0.0483,-0.0479,-0.0501,-0.0483,-0.0482,-0.0498,-0.0321,-0.029,-0.019,-0.0223,-0.0215,-0.0224,-0.0473,-0.0385,-0.0398,-0.0498,-0.0475,-0.0499,-0.052,-0.0374,-0.0376,-0.0378,-0.0379,0,-0.0389,-0.0399,-0.0415,-0.0436,-0.0453,-0.0389,-0.0421,-0.0335,-0.0325,-0.0244,-0.0161,-0.0107,-0.0113,-0.0097,-0.0083,-0.0091,-0.0111,-0.0165,-0.0189,-0.0209,-0.0207,-0.015,0.0102,0,0,0,0,0,-0.0377,-0.037,-0.0389,-0.0393,-0.0389,-0.0367,-0.0331,-0.0336,-0.0305,-0.0141,-0.0152,-0.0035,0.0022,0.0017,0.0048,-0.0032,-0.0155,-0.0001,-0.0241,-0.0279,-0.0299,-0.0323,0,0,0,0,0,0,-0.037,-0.0384,-0.0375,-0.0325,-0.0301,-0.0259,-0.0224,-0.0189,-0.0103,-0.0073,-0.0044,-0.0015,0.0015,0.0028,0.0061,0.0055,-0.0091,0.0012,0.0013,-0.0268,-0.0285,-0.0301,-0.0334,0,0,0,0,0]},{"header":{"parameterUnit":"m.s-1","parameterCategory":2,"la1":30.2991,"la2":30.254,"lo1":-89.0895,"lo2":-89.0444,"dy":0.0017,"dx":0.0017,"nx":28,"ny":28,"refTime":"2023-08-17T21:00:00:Z","depth":"4","parameterNumber":3,"parameterNumberName":"V-component_of_CURRENTS"},"data":[0,0,0,0,0,0,0,0,0,0,0,0,0,0,0,0,0,0,0,0,0,0,0,0,0,0,0,0,0,0,0,0,0,0,0,0,0,0,0,0,0,0,0,0,0,0,0,0,0,0,0,0,0,0,0,0,0,0,0.0149,0.0149,0,0.0116,0.0116,0.0115,0.0091,0.0091,0.0091,0.0091,0.0027,0.0025,0.0024,0,0,0,0,0,0,0,0,0,0,0,0,0,0.0079,0.0081,0.0149,0.0149,0.0149,0.0116,0.0116,0.0115,0.0091,0.0091,0.0091,0.0091,0.0028,0.0026,0.0023,0,0,0,0,0,0,0,0,0,0,0,0,0,0.0082,0.0082,0.0149,0.0135,0.0134,0.0116,0.0116,0.0115,0.0091,0.0091,0.0091,0.0091,0.0028,0.0026,0.0023,0.0005,0,0,0.0015,0.0014,0,0,0,0,0,0,0,0,0.0082,0.0084,0.0137,0.0136,0.0135,0.011,0.0067,0.0077,0.0091,0.0104,0.0091,0.0091,0.0054,0.0049,0.0039,0.0002,-0.0001,0.0015,0.0013,0.0012,0.0011,0,0,0,0,0,0,0,0.0082,0.0085,0.0133,0.0137,0.0136,0.0092,0.0093,0.0068,0.0076,0.0103,0.0102,0.0103,0.0052,0.0042,0.0037,-0.0002,0.0015,0.0013,0.0011,0.001,-0.0095,-0.0096,0,0,0,0,0,0,0.0098,0.0086,0.0134,0.0133,0.0111,0.0094,0.0095,0.0116,0.0077,0.0072,0.0103,0.0102,0.0046,0.004,0.0035,-0.0003,0.0012,0.001,0.0008,-0.0094,-0.0095,-0.0097,0,0,0,0,0,0,0.0097,0.0103,0.0136,0.0109,0.011,0.0096,0.0119,0.0115,0.0107,0.0078,0.0072,0.0099,0.0046,0.0039,-0.0013,-0.0005,0.0008,0.0006,-0.0093,-0.0094,-0.0096,-0.0069,0,0,0,0,0,0,0.0095,0.0104,0.0119,0.0111,0.0113,0.0114,0.0119,0.0114,0.0108,0.0107,0.0072,0.0066,0.0045,-0.0009,-0.0016,-0.0008,0.0004,-0.0091,-0.0093,-0.0095,-0.0069,-0.007,-0.0071,0,0,0,0,0,0.0093,0.0101,0.012,0.0126,0.0137,0.0114,0.0109,0.0097,0.0108,0.0092,0.006,0.0068,-0.0027,-0.0013,-0.002,-0.0013,-0.009,-0.0093,-0.0095,-0.0068,-0.007,-0.0071,0,0,0,0,0,0,0.0088,0.01,0.012,0.0138,0.0128,0.0111,0.0095,0.01,0.0066,0.0065,0.0043,0.0033,-0.0004,-0.0023,-0.0007,-0.0054,-0.0053,-0.0058,-0.003,-0.0032,-0.0033,-0.0024,0.0002,0,0,0,0,0,0.0097,0.0104,0.011,0.0126,0.0118,0.0113,0.0105,0.0101,0.0075,0.0062,0.0034,0.0004,-0.0021,-0.0039,-0.0072,-0.0102,-0.0099,-0.0102,-0.0103,-0.0104,-0.0105,-0.0085,-0.0083,-0.0106,-0.0106,-0.0106,0,0,0.0109,0.0111,0.0122,0.0124,0.0115,0.0087,0.0106,0.0091,0.0064,0.0059,0.0001,-0.0004,-0.0033,-0.0069,-0.0086,-0.0083,-0.0102,-0.0108,-0.0107,-0.0108,-0.0088,-0.0085,-0.0082,-0.0107,-0.0107,-0.0107,0,0,0.0108,0.0128,0.0124,0.0105,0.0091,0.0073,0.0072,0.0051,0.0035,-0.0016,-0.0013,-0.0022,-0.0086,-0.0088,-0.0099,-0.013,-0.0109,-0.013,-0.0126,-0.0106,-0.0103,-0.01,-0.0107,-0.0105,-0.0129,-0.0129,-0.0129,0,0.013,0.0121,0.0117,0.0091,0.0072,0.0066,0.0043,0.0014,-0.0022,-0.0039,-0.0044,-0.009,-0.0098,-0.0112,-0.0111,-0.0128,-0.0118,-0.0111,-0.0103,-0.0101,-0.0098,-0.0105,-0.0103,-0.0128,-0.0128,-0.0128,-0.0129,0,0.0105,0.01,0.0085,0.0052,0.0026,0.0002,-0.0033,-0.0066,-0.0086,-0.0104,-0.0131,-0.0137,-0.0151,-0.0146,-0.0135,-0.0111,-0.0111,-0.0102,-0.0088,-0.0093,-0.0102,-0.01,-0.0127,-0.0127,-0.0127,-0.0128,0,0,0.0154,0.009,0.0084,0.0061,0.0005,-0.002,-0.008,-0.0127,-0.0159,-0.0186,-0.0212,-0.0214,-0.0177,-0.0184,-0.0148,-0.0121,-0.0082,-0.009,-0.0089,-0.0078,-0.0046,-0.0098,-0.0101,-0.0053,-0.0053,-0.0052,-0.0063,0,0.0142,0.0087,0.0056,-0.0002,-0.0039,-0.0075,-0.0132,-0.0176,-0.0218,-0.0257,-0.0238,-0.0247,-0.0204,-0.0174,-0.0141,-0.0091,-0.0074,-0.0081,-0.0061,-0.0061,-0.0089,-0.01,-0.005,-0.0061,-0.0061,-0.0061,-0.006,0,0.0121,0.0079,0.0029,-0.0038,-0.0054,-0.0089,-0.0173,-0.0219,-0.0277,-0.0294,-0.0289,-0.0275,-0.0223,-0.0188,-0.0117,-0.0114,-0.0075,-0.005,-0.005,-0.0104,-0.0109,-0.0056,-0.0057,-0.0057,-0.0058,-0.0058,-0.0058,0,0.0127,0.0061,0.002,-0.0006,-0.0086,-0.011,-0.0153,-0.0226,-0.0259,-0.0293,-0.0301,-0.0272,-0.0232,-0.0181,-0.0118,-0.0098,-0.0065,-0.004,-0.007,-0.0074,-0.0032,-0.0034,-0.0008,-0.0008,-0.0008,-0.0008,-0.0008,0,0.0113,0.008,0.0021,-0.0006,-0.0063,-0.0109,-0.0162,-0.0209,-0.0251,-0.0283,-0.0285,-0.0285,-0.0217,-0.0195,-0.014,-0.0109,-0.0083,-0.0076,-0.0077,-0.0026,-0.0028,-0.0031,-0.0034,-0.0008,-0.0008,-0.0008,-0.0008,0,0.0117,0.0087,0.0032,-0.004,-0.006,-0.0101,-0.0153,-0.0191,-0.0226,-0.026,-0.0252,-0.0269,-0.0246,-0.0222,-0.0159,-0.0139,-0.0109,-0.0111,-0.0088,-0.0087,-0.0126,-0.0128,-0.0136,-0.0138,-0.0139,-0.0141,-0.0142,0,0.0103,0.0078,0.0009,-0.0008,-0.0035,-0.0088,-0.0122,-0.0172,-0.0201,-0.0253,-0.0259,-0.0265,-0.0271,-0.0232,-0.0215,-0.018,-0.0165,-0.0159,-0.0111,-0.0138,-0.0138,-0.0137,-0.0136,-0.0144,-0.0145,-0.0145,-0.0146,0,0.007,0.0061,0.0022,-0.0009,-0.0035,-0.0085,-0.0126,-0.0129,-0.0185,-0.0219,-0.0237,-0.0247,-0.0258,-0.024,-0.0236,-0.0201,-0.0163,-0.0174,-0.0169,-0.0124,-0.0148,-0.0146,-0.0144,-0.0151,-0.015,-0.015,-0.0149,0,0.0045,0.003,0.0011,-0.0011,-0.003,-0.005,-0.0089,-0.0112,-0.014,-0.0184,-0.0197,-0.0224,-0.0247,-0.0256,-0.0248,-0.0236,-0.0212,-0.0175,-0.0169,-0.0164,-0.0173,-0.0207,-0.0233,0,0,0,0,0,0.0011,0.003,0.0012,-0.0,-0.0006,-0.0006,-0.0072,-0.0109,-0.0149,-0.0148,-0.0166,-0.0181,-0.0201,-0.0229,-0.0217,-0.0275,-0.0216,-0.0264,-0.017,-0.0181,-0.0175,-0.0186,0,0,0,0,0,0,0.0003,-0.0003,0.0016,0.0035,0.0059,0.0037,0.002,-0.003,-0.0037,-0.0079,-0.0086,-0.0144,-0.0163,-0.0166,-0.0191,-0.0203,-0.0139,-0.0293,-0.0293,-0.0185,-0.0179,-0.0174,-0.0184,0,0,0,0,0]}]]